Regional Weather Roundup
Issued by NWS Raleigh/Durham, NC

Home | Current Version | Previous Version | Text Only | Print | Product List | Glossary On
Versions: 1 2 3 4 5 6 7 8 9 10 11 12 13 14 15 16 17 18 19 20 21 22 23 24 25 26 27 28 29 30 31 32 33 34 35 36 37 38 39 40 41 42 43 44 45 46 47 48
000
ASUS42 KRAH 020210
RWRRAH
NORTH CAROLINA WEATHER ROUNDUP
NATIONAL WEATHER SERVICE RALEIGH NC
1000 PM EDT WED OCT 01 2014

NOTE: "FAIR" INDICATES FEW OR NO CLOUDS BELOW 12,000 FEET WITH NO
SIGNIFICANT WEATHER AND/OR OBSTRUCTIONS TO VISIBILITY.

NCZ001-053-055-056-065-067-020300-
WESTERN NORTH CAROLINA

CITY           SKY/WX    TMP DP  RH WIND       PRES   REMARKS
ASHEVILLE      PTCLDY    65  61  87 CALM      30.10R
JEFFERSON      CLEAR     60  50  69 CALM      30.14R
MORGANTON      PTCLDY    65  64  93 CALM      30.10R
HICKORY        CLEAR     66  61  84 CALM      30.05R
RUTHERFORDTON  PTCLDY    66  64  91 CALM      30.06R
MOUNT AIRY     CLEAR     65  62  90 CALM      30.08R
BOONE          CLEAR     55  55 100 CALM      30.15S
$$

NCZ021-022-025-041-071-084-088-020300-
CENTRAL NORTH CAROLINA

CITY           SKY/WX    TMP DP  RH WIND       PRES   REMARKS
CHARLOTTE      PTCLDY    73  63  70 E8        30.04R
GREENSBORO     PTCLDY    67  63  87 CALM      30.05R
WINSTON-SALEM  CLEAR     65  61  87 CALM      30.06R
RALEIGH-DURHAM PTCLDY    64  62  93 CALM      30.04R
FORT BRAGG     CLEAR     67  66  96 CALM      30.03R
FAYETTEVILLE   CLEAR     67  65  93 CALM      30.02S
BURLINGTON     CLEAR     63  61  93 S3        30.04R FOG
LAURINBURG     PTCLDY    68  66  93 S3        30.04R
$$

NCZ011-015-027-028-043-044-047-080-103-020300-
NORTHEASTERN NORTH CAROLINA

CITY           SKY/WX    TMP DP  RH WIND       PRES   REMARKS
ROCKY MT-WILSO FOG       63  62  97 CALM      30.04R VSB 1/2
GREENVILLE     CLEAR     63  63 100 CALM      30.05R FOG
WASHINGTON     CLEAR     65  64  93 CALM      30.05R
ELIZABETH CITY MOCLDY    68  64  87 NE8       30.04R
MANTEO         PTCLDY    68  63  83 NE9       30.03S
CAPE HATTERAS  PTCLDY    67  65  93 VRB5      30.02R
$$

NCZ078-087-090-091-093-098-101-020300-
SOUTHEASTERN NORTH CAROLINA

CITY           SKY/WX    TMP DP  RH WIND       PRES   REMARKS
LUMBERTON      CLOUDY    71  68  90 CALM      30.03R
GOLDSBORO      CLEAR     65  65  98 CALM      30.01R
KINSTON        CLEAR     64  63  94 CALM      30.03R FOG
KENANSVILLE    CLEAR     64  62  96 CALM      30.03F
NEW BERN       CLEAR     67  64  90 CALM      30.04R
CHERRY POINT   PTCLDY    67  64  90 SE5       30.04R
BEAUFORT       PTCLDY    70  66  87 NE5       30.03R
JACKSONVILLE   CLEAR     67  65  93 CALM      30.03R
WILMINGTON     CLEAR     67  66  97 CALM      30.02S
$$



USA.gov is the U.S. government's official web portal to all federal, state and local government web resources and services.